TIROS N

Satellite information

Favourite Embed

Satellite Type and Status

PAYLOADIN ORBIT

Key statistics

Satellite TIROS N at a glance.

Uptime

17228

Days in orbit

Revolutions

≈ 14.2

Per day

Orbit

SSO

Sun Synchronous Orbit

Inclination

98.5

Latest

Satellite identification and parameters

Extended collection of information and parameters for TIROS N.

Object identification

Identified? True

Debris? False

Object name: TIROS N

International designator: 1978-096A

Object number (NORAD): 11060

Object ID (CCSDS): 11060

Country: UNITED STATES OF AMERICA (US)

Current information (Y/N): Y

RCS size: LARGE

Orbital parameters

Period: 101.459 minutes

Inclination: 98.471 deg

SMA: 7205.888 km

Apoapsis: 835.977 km

Periapsis: 819.528 km

RAAN: 10.4293 deg

Eccentricy: 0.00114137

Argument of periapsis: 67.8623 deg

Mean anomaly: 292.3764 deg

Mean motion: 14.19291201 rev/day

Mean motion (dot): 0.00000291 rev/day2

B* drag term: 0.00015839082 1/REarth

Two-line elements (TLE)

Creation date: Dec. 12, 2025, 10:14 a.m.

Reference frame: TEME

Reference center: EARTH

Epoch: Dec. 12, 2025, 1:02 a.m. UTC

TLE line 0: 0 TIROS N

TLE line 1: 1 11060U 78096A 25346.04350862 .00000291 00000-0 15839-3 0 9997

TLE line 2: 2 11060 98.4710 10.4293 0011414 67.8623 292.3764 14.19291201652209

Live tracking on map

Real-time ground track for satellite TIROS N.

In-orbit conjunctions

A list of the most updated potential collisions computed for object TIROS N.

Target Orbit TCA Probability of collision Miss distance Type
FENGYUN 1C DEB SSO 2025-12-04 08:11:22 0.0001098255 186.0 (m) DEBRIS
METEOR 2-8 DEB LEO 2025-09-30 19:11:49 0.0001896556 93.0 (m) DEBRIS
FENGYUN 1C DEB SSO 2024-11-13 06:34:59 0.0003117031 245.0 (m) DEBRIS
FENGYUN 1C DEB SSO 2024-10-06 14:08:57 0.0001570039 237.0 (m) DEBRIS
FENGYUN 1C DEB SSO 2024-09-24 11:37:45 0.0005396457 331.0 (m) DEBRIS

Associated space launch

Third generation LEO meteorological satellite

TIROS N was lifted into orbit during the mission ‘Atlas F | Tiros-N’, on board a Atlas F space rocket.

The launch took place on Oct. 13, 1978, 11:23 a.m. from Space Launch Complex 3W.

For more information about the launch, click the button.

Launch to space Atlas F | Tiros-N
Atlas F | Tiros-N

Agency: N/A

Status: Launch Successful

Launch date: Oct. 13, 1978, 11:23 a.m. UTC

Rocket: Atlas F

Launch pad: Space Launch Complex 3W

Location: Vandenberg SFB, CA, USA

...

Latest news about this satellite

There are no fresh news available about this satellite. Check back as we update our databases every day.


Newsletter sign-up

Weekly statistics, charts and insights to help you stay on top of the space industry.